Location: Terra Rouge Observatory
(46.0000°N, 62.7500°W)
Time: 03:25:42
(UTC-03:00)

NOSS 3-1 (A) - Visible Passes

Search period start: 27 May 2016 00:00
Search period end: 06 June 2016 00:00
Orbit: 858 x 1355 km, 63.4° (Epoch: 01 May)

Date Brightness Start Highest point End Pass type
(mag) Time Alt. Az. Time Alt. Az. Time Alt. Az.
28 May 5.9 04:24:40 10° SE 04:26:57 12° ESE 04:29:20 10° E visible
30 May 5.1 04:42:34 10° S 04:47:34 29° ESE 04:53:00 10° NE visible
31 May 5.6 03:59:34 10° SSE 04:03:20 18° ESE 04:07:19 10° ENE visible
02 Jun 4.5 04:18:39 10° S 04:24:05 39° ESE 04:30:03 10° NE visible
03 Jun 5.1 03:35:09 10° SSE 03:39:46 24° ESE 03:44:43 10° ENE visible
04 Jun 5.5 02:52:37 10° SE 02:55:35 14° ESE 02:58:40 10° ENE visible
04 Jun 3.6 04:39:16 10° SSW 04:45:12 80° SE 04:51:53 10° NE visible
05 Jun 4.0 03:55:21 12° SSW 04:00:38 52° ESE 04:06:59 10° NE visible
